Location: Unspecified
(48.7670°N, 0.0000°E)
Time: 14:26:58
(UTC+00:00)

Altair - Pass Details

Date: 02 July 2019
Orbit: 1501 x 1683 km, 47.2° (Epoch: 24 August)

Event Time Altitude Azimuth Distance (km) Brightness Sun altitude
Rises 22:30:53 0° 288° (WNW) 4,757 10.7 -15.3°
Reaches altitude 10° 22:34:01 10° 283° (WNW) 3,795 10.0 -15.5°
Maximum altitude 22:43:15 52° 211° (SSW) 1,959 7.8 -16.0°
Enters shadow 22:50:21 19° 145° (SE) 3,206 8.6 -16.4°
Drops below altitude 10° 22:52:47 10° 139° (SE) 3,911 - -16.5°
Sets 22:56:04 0° 135° (SE) 4,910 - -16.6°
